GFSSE_sfc_rhum_132.txt.gz
RH
85 80 77 78 73 70 68 68 71 72 76 77 78 78 78 78 77 78 78 78 78 76 76 72 73 74 74 75 76 76 76 76 76 75 73 72 73 75 76 77 76 72 77
72 74 76 72 66 66 69 72 71 74 78 77 77 76 77 77 77 78 78 78 78 77 76 76 76 75 75 74 76 76 76 76 76 74 73 72 73 76 76 75 76 74 76
71 72 72 74 67 69 70 71 73 75 76 77 78 77 76 76 78 77 77 78 77 76 74 74 75 77 77 74 73 74 74 75 74 74 76 79 76 72 74 76 76 77 76
75 82 75 76 73 67 67 66 72 75 76 78 78 77 76 76 76 76 76 75 75 76 74 74 74 74 71 71 72 71 73 74 70 67 72 68 62 71 72 73 74 73 71
76 86 76 74 74 69 74 77 77 75 75 78 77 75 73 74 73 74 76 76 76 75 75 75 75 74 70 70 70 70 69 68 67 68 79 86 85 74 76 77 75 72 73
84 80 75 73 72 72 76 76 75 76 76 76 76 74 75 74 74 73 73 75 74 74 74 74 73 72 72 72 71 69 67 71 72 77 87 85 86 76 73 72 70 72 76
88 88 75 77 75 75 75 76 77 73 72 76 75 76 76 73 72 74 74 74 75 73 72 72 72 72 72 73 72 69 71 69 75 83 86 90 87 77 74 75 76 73 74
89 89 77 74 76 75 75 75 76 74 73 76 76 74 74 73 73 73 72 68 67 68 70 71 71 70 71 70 68 69 70 71 70 82 89 95 87 77 70 72 72 74 75
84 87 82 80 75 72 74 73 75 75 75 75 74 74 74 73 72 72 71 72 68 65 64 64 66 66 66 65 63 65 65 70 80 86 80 92 84 77 74 71 70 70 70
87 89 92 89 86 84 81 75 74 74 73 73 75 72 73 72 71 71 78 75 68 68 68 67 66 66 67 66 65 65 65 68 73 74 84 90 80 67 64 66 67 67 66
85 93 94 93 93 92 85 76 74 72 72 72 74 71 79 86 80 76 77 70 70 69 69 70 70 71 71 69 70 69 65 66 69 78 87 84 78 66 66 68 67 68 69
86 88 94 92 93 88 70 87 91 88 90 92 91 86 90 89 87 76 77 70 68 69 70 71 72 72 72 84 81 70 83 79 67 79 89 82 75 67 66 66 69 71 73
83 84 92 90 92 87 85 96 99 98 94 93 89 88 89 82 89 88 91 85 88 78 82 76 79 80 80 84 83 79 78 64 73 76 80 82 76 67 67 69 70 72 74
84 83 87 92 92 93 96 98 96 97 91 90 84 83 89 88 91 90 92 92 86 86 84 87 85 81 82 77 78 79 71 61 71 79 87 81 80 70 68 68 70 72 73
73 82 84 92 90 92 94 96 93 91 93 78 80 81 82 81 80 79 82 82 83 84 83 82 81 78 78 74 69 75 60 60 70 79 92 76 82 78 71 70 72 73 74
65 74 88 88 86 89 93 93 94 95 84 74 69 79 73 77 77 79 80 79 81 80 77 78 74 71 73 55 52 54 56 60 64 73 83 87 81 81 76 76 76 77 76
59 73 82 80 87 81 82 86 94 94 74 74 78 76 75 74 76 82 83 81 79 76 69 62 66 71 65 58 51 53 58 59 62 65 69 78 87 80 77 76 82 85 84
62 74 72 58 81 83 89 92 91 91 81 79 91 83 70 73 74 85 84 87 82 88 81 78 79 78 69 65 58 62 59 60 61 62 64 67 80 79 84 84 83 83 86
64 69 63 66 86 83 90 93 92 80 86 87 94 79 73 71 77 90 92 96 88 88 84 83 89 86 76 69 62 64 62 64 73 59 69 73 83 86 94 81 79 78 74
62 65 63 74 78 86 85 95 92 91 86 86 84 77 76 76 77 92 91 86 84 92 79 82 88 78 82 82 54 54 67 70 79 75 78 79 84 88 88 88 92 86 75
64 68 71 75 83 85 92 94 94 92 92 90 86 73 80 82 79 92 91 83 88 90 90 87 92 77 80 85 73 71 71 64 68 80 88 91 86 89 90 72 73 51 82
67 65 71 71 87 81 88 93 87 88 89 92 84 84 78 73 85 90 90 86 84 80 83 88 93 89 92 96 94 94 83 71 70 84 92 87 80 94 89 78 75 72 78
67 69 69 81 86 80 90 94 97 94 94 93 90 86 80 77 82 87 91 90 91 93 96 91 81 89 93 91 93 91 94 92 95 90 88 88 88 86 89 92 88 88 90
63 65 73 75 81 86 92 89 87 87 85 80 85 87 80 78 76 82 86 89 93 95 88 91 89 94 87 80 88 91 94 89 84 82 83 94 90 87 91 98 94 92 92
55 67 71 75 78 88 91 90 90 87 91 83 92 87 85 83 77 78 87 88 85 84 88 89 90 92 93 90 85 94 93 95 95 96 87 89 92 94 92 92 94 96 91
53 64 69 74 78 92 91 91 86 87 89 94 92 92 91 83 84 77 78 87 82 88 91 87 92 92 95 93 93 94 95 97 96 98 97 93 92 88 91 92 96 94 91

GFSSE_sfc_rhum_138.txt.gz
RH
92 80 80 77 74 70 65 69 74 77 75 75 78 78 78 77 79 78 77 76 74 74 74 74 75 74 73 72 72 74 73 73 74 73 75 76 76 76 76 75 75 68 75
84 78 81 77 73 73 67 70 75 79 76 77 77 78 76 78 78 78 78 77 76 74 73 73 74 73 72 74 74 75 74 74 74 73 73 74 75 75 75 75 76 72 76
86 80 87 78 76 76 67 71 78 78 76 78 78 76 77 77 77 78 77 77 75 76 74 73 74 74 74 72 72 74 75 74 74 74 78 76 73 74 74 74 76 75 74
82 85 83 76 75 68 67 76 78 76 77 78 77 78 77 77 77 77 76 77 75 74 76 74 74 72 73 73 74 74 71 71 74 76 72 71 62 74 75 76 75 76 76
85 88 83 73 74 70 72 73 74 75 74 78 79 76 76 76 76 76 76 75 77 76 74 72 71 72 71 71 72 72 72 72 69 75 79 80 75 67 71 73 74 75 75
87 83 68 73 70 69 66 63 65 67 72 76 76 76 74 76 78 76 76 76 76 76 74 72 72 73 72 72 71 71 70 69 76 79 82 80 80 76 76 71 69 73 73
89 85 74 66 65 70 69 73 71 75 68 79 79 77 74 76 76 76 76 74 75 75 73 75 76 75 72 74 73 72 72 74 80 85 84 84 80 77 71 70 69 72 72
89 86 75 69 71 70 76 74 72 72 80 77 75 75 76 74 73 74 75 74 72 71 72 72 74 74 73 70 70 69 72 74 75 82 84 83 80 76 74 74 71 72 76
91 90 91 84 75 66 74 78 76 75 77 74 74 73 74 74 72 69 67 65 66 69 70 71 71 69 67 65 65 65 73 77 78 81 79 84 84 73 71 72 73 73 73
96 93 92 92 90 90 86 75 73 74 73 76 74 74 73 72 71 75 78 70 65 63 64 64 65 66 66 66 68 68 66 76 76 81 82 82 85 77 72 68 67 66 66
96 96 94 94 91 94 93 79 76 73 72 74 74 75 89 93 87 83 74 70 69 69 69 70 70 70 68 70 68 67 69 81 74 75 79 83 80 67 65 68 69 69 70
99 98 96 96 94 93 78 92 92 88 92 92 91 90 95 92 88 78 79 70 70 69 70 70 71 71 76 78 76 71 74 69 70 73 74 81 76 68 67 69 68 69 72
96 96 96 96 95 93 90 96 98 97 96 96 92 92 89 87 89 90 88 92 89 77 80 75 75 74 76 77 77 76 74 76 68 70 70 79 76 71 69 68 68 72 75
94 94 96 96 96 95 97 98 97 97 94 92 92 90 91 90 89 90 88 86 88 84 84 81 79 80 78 77 75 74 72 65 71 71 73 77 77 74 69 69 71 72 75
91 92 95 96 96 96 96 98 97 94 94 89 88 87 89 89 90 89 86 83 83 83 82 83 82 79 80 75 74 77 74 69 66 68 73 75 79 76 73 72 72 75 76
86 89 93 95 94 94 97 96 96 92 88 88 87 86 87 88 88 84 82 82 83 83 82 82 83 79 77 73 63 69 74 66 67 69 70 74 79 78 76 76 76 78 79
83 84 92 93 92 93 95 94 95 91 83 86 86 86 86 86 85 82 85 87 85 85 80 81 76 78 74 62 63 64 70 66 62 67 67 70 80 80 78 77 79 82 80
79 86 90 75 86 92 94 90 93 93 86 85 92 86 81 83 82 84 88 87 84 84 82 84 81 82 75 68 66 67 68 66 64 65 66 67 74 69 78 80 82 82 78
76 84 90 86 86 91 90 93 93 87 86 89 92 89 84 82 80 90 87 87 84 83 85 81 82 79 78 71 63 68 67 67 68 54 65 66 65 68 73 79 86 85 78
72 82 84 86 86 90 86 94 94 92 89 89 93 88 84 86 85 92 89 87 85 86 80 81 82 80 84 83 58 65 71 73 74 73 69 70 75 78 80 81 85 86 79
68 84 84 86 91 89 93 96 96 94 95 90 88 83 82 86 86 90 91 87 86 85 84 85 88 80 80 85 77 76 74 71 70 76 81 82 76 72 75 78 76 68 74
71 79 82 82 94 87 87 95 91 89 89 90 87 86 82 83 87 91 90 87 85 80 86 86 86 81 87 92 85 90 78 75 74 76 86 80 77 81 72 74 82 80 79
72 77 78 82 91 87 93 95 97 94 95 93 93 93 84 85 84 92 89 90 86 93 93 88 81 81 86 89 90 84 89 85 90 81 78 74 79 73 72 73 71 78 79
68 73 77 81 90 90 94 93 91 89 87 86 85 87 84 85 84 86 88 85 86 94 95 92 81 90 84 81 85 78 89 86 80 77 77 82 72 72 80 79 74 78 79
66 71 74 84 89 89 92 91 90 90 91 86 91 88 89 88 87 85 92 91 91 88 89 92 86 92 92 86 80 90 85 93 92 92 81 82 81 82 80 78 82 83 76
58 69 74 85 89 91 92 92 90 89 90 93 90 91 89 88 86 87 89 92 91 84 88 86 90 90 91 90 86 88 91 92 92 92 94 87 83 78 78 78 83 84 79

GFSSE_sfc_rhum_141.txt.gz
RH
66 65 78 76 71 70 66 72 77 73 75 78 77 76 76 77 78 76 76 76 78 76 77 74 75 72 72 72 70 72 71 74 74 75 75 76 77 76 75 74 70 53 76
57 65 82 76 70 72 68 71 76 75 77 79 78 80 80 77 76 77 78 72 73 74 74 76 73 72 73 74 74 74 74 74 73 73 72 73 74 75 75 75 70 65 76
54 62 81 78 75 72 68 75 78 78 78 78 78 78 78 77 76 76 76 75 77 74 74 73 74 74 72 73 74 73 74 74 74 75 69 50 56 74 75 74 75 76 76
52 68 76 82 81 71 76 75 75 78 75 79 77 77 77 76 76 75 75 75 74 74 72 73 72 70 70 72 70 72 73 76 76 72 47 47 50 75 76 76 76 76 76
58 68 67 81 73 75 69 71 69 73 76 78 78 77 76 76 77 76 75 74 75 74 74 73 72 72 71 72 72 73 72 67 70 54 48 54 45 63 72 73 73 75 72
62 54 70 66 68 72 71 71 71 73 71 75 78 77 77 74 76 74 77 75 75 74 72 72 71 72 73 71 71 70 69 73 66 55 55 64 57 74 73 69 72 72 72
57 53 60 69 66 72 69 71 69 70 70 72 75 78 73 77 72 76 74 74 74 73 74 72 71 71 72 74 73 72 71 73 55 60 58 58 56 73 69 68 71 73 72
50 49 50 64 69 69 70 68 68 70 73 74 78 77 73 75 75 75 74 73 73 73 73 69 70 72 71 70 68 72 75 68 56 58 58 54 74 76 75 72 70 73 76
47 74 62 53 58 64 66 66 69 70 77 76 74 76 74 71 69 68 68 70 71 72 72 72 72 69 66 66 65 71 75 72 54 51 47 51 79 68 68 70 72 72 71
64 63 70 85 69 82 78 71 69 74 79 72 74 75 73 70 73 73 74 67 65 65 66 66 65 65 65 65 67 67 69 76 47 54 48 48 82 74 71 67 67 65 66
66 68 84 90 84 78 84 80 77 80 74 76 74 82 77 68 61 56 70 69 68 67 68 67 66 66 65 65 66 68 67 46 44 46 44 80 82 72 64 65 68 69 71
64 73 70 80 76 81 78 76 77 71 85 73 69 75 69 67 64 59 69 73 71 71 71 71 72 71 68 39 41 60 38 47 49 47 44 79 77 69 66 69 70 69 73
57 61 74 72 75 68 79 80 80 67 68 72 74 69 70 64 62 55 54 56 56 63 47 50 49 45 53 47 44 42 48 52 43 44 51 75 74 72 69 70 70 71 75
63 60 65 72 75 77 74 79 81 72 64 59 67 70 67 57 60 62 53 56 57 50 57 56 47 55 56 56 48 48 48 46 41 40 48 72 75 74 71 70 71 74 79
58 59 63 70 78 78 81 76 75 74 61 60 63 68 62 60 64 61 60 54 57 52 53 56 55 52 56 51 46 50 48 48 46 38 38 68 76 76 74 72 72 74 74
58 57 60 68 72 73 77 81 70 63 61 60 60 62 68 63 66 57 56 55 54 56 54 54 56 54 52 48 43 44 50 48 52 47 37 42 76 77 75 75 76 76 77
54 56 62 66 68 74 76 74 69 62 56 57 58 67 67 68 68 68 57 59 57 61 62 60 57 55 49 40 44 43 44 48 44 47 42 39 43 76 77 76 79 81 80
53 62 64 54 61 69 73 67 61 60 58 58 59 59 64 69 70 66 56 57 59 60 56 55 53 52 49 41 41 42 44 46 49 47 43 43 42 40 59 73 79 84 80
55 62 65 66 65 70 74 66 66 66 60 58 59 58 63 64 63 63 58 58 64 56 56 54 53 58 52 45 39 41 43 42 44 35 45 47 44 46 46 68 79 85 80
55 61 62 63 70 74 70 75 63 60 60 58 59 57 65 62 63 68 60 65 62 57 53 54 66 57 60 53 35 38 45 44 46 46 44 42 47 52 48 58 54 52 78
54 60 66 68 74 71 69 67 66 61 63 60 60 66 68 67 69 74 61 63 65 64 66 64 61 61 53 58 52 49 47 48 46 46 44 44 47 45 46 46 52 48 49
54 59 68 71 75 74 65 66 60 62 59 56 59 66 65 66 69 69 73 64 68 55 66 68 72 53 54 60 53 55 47 43 44 41 46 47 47 43 43 49 57 58 58
54 60 66 73 73 73 72 66 73 71 71 66 64 61 61 65 65 73 73 70 69 65 54 66 64 66 49 57 67 55 49 44 48 44 47 42 49 43 47 50 49 53 60
52 54 61 70 73 71 75 71 74 61 59 57 58 59 59 65 65 64 72 72 73 62 72 65 63 64 68 55 56 52 66 62 48 42 44 44 48 46 56 47 44 49 55
49 51 57 70 74 72 75 75 68 70 58 56 57 69 70 70 68 63 73 74 73 62 70 76 68 75 62 61 53 56 62 56 65 56 46 44 42 42 44 46 48 49 51
48 51 56 70 77 75 75 76 78 74 71 63 64 60 57 57 59 70 68 75 74 69 68 67 73 75 71 70 59 58 56 56 55 57 56 52 52 45 42 43 46 49 50

GFSSE_sfc_rhum_144.txt.gz
RH
49 56 78 73 70 69 72 74 72 74 75 76 78 78 79 78 77 77 76 76 73 73 74 74 73 74 72 71 72 72 74 74 74 74 76 76 75 76 73 73 69 50 77
43 57 78 73 73 71 73 78 74 75 74 73 76 74 78 77 77 76 74 73 73 74 74 73 71 73 75 73 75 74 73 74 73 73 73 73 74 74 75 76 74 62 75
45 60 66 75 74 70 74 74 74 76 74 72 70 73 78 75 75 76 73 74 73 74 73 74 73 72 72 73 73 74 74 74 73 68 62 38 50 74 74 74 75 76 76
44 64 60 80 73 73 72 73 72 71 76 77 75 77 75 76 76 75 75 74 73 73 74 73 71 70 70 71 72 73 76 76 71 66 36 33 40 74 75 75 76 75 76
48 51 59 79 73 71 69 71 70 70 73 79 78 76 76 75 76 75 74 74 73 75 74 72 72 72 72 70 72 72 67 68 62 46 37 38 35 62 72 73 74 74 76
46 52 75 83 75 73 68 72 71 71 72 72 74 76 73 73 74 74 75 73 75 73 72 71 72 70 70 70 69 68 71 66 66 38 41 48 47 73 68 67 69 71 69
43 41 49 73 73 77 75 69 70 72 74 71 74 72 70 71 72 74 74 75 72 72 72 72 71 72 72 72 71 71 72 65 42 44 40 39 50 71 68 68 72 71 71
38 43 46 71 73 72 70 65 66 72 74 76 76 77 74 76 77 76 75 73 72 70 68 70 71 72 70 67 69 73 73 66 40 40 42 39 74 75 73 71 69 74 74
36 40 44 44 66 64 67 64 66 71 73 78 73 76 75 74 72 72 72 71 70 70 70 71 70 68 65 64 68 72 72 67 40 38 32 36 75 66 66 69 71 70 69
38 40 42 47 54 63 52 61 65 72 77 70 71 77 69 68 67 66 72 70 70 70 69 67 65 64 63 64 65 65 71 74 33 39 33 47 79 71 69 65 65 63 64
40 42 50 49 74 85 76 67 74 76 73 81 79 78 68 39 41 51 67 66 65 65 64 64 62 62 62 63 64 66 67 32 30 31 29 82 81 73 64 64 66 70 69
42 72 73 47 50 65 77 89 94 88 89 88 81 58 41 42 44 43 60 69 68 68 67 67 67 66 64 30 37 59 31 34 33 32 32 76 76 68 64 66 70 70 70
33 36 58 61 66 68 88 88 97 94 92 86 65 49 45 38 39 36 45 44 43 61 36 44 44 32 39 34 30 27 31 36 28 29 53 72 72 68 68 69 71 70 70
38 40 39 44 52 60 86 50 46 51 43 43 47 52 49 40 44 43 39 44 44 38 45 43 33 42 43 42 34 31 29 28 25 26 47 68 71 70 72 71 71 72 73
36 38 40 48 58 57 61 54 48 43 38 41 45 47 42 41 48 43 47 40 42 37 37 40 38 37 40 36 32 32 29 30 30 25 27 67 72 73 73 73 72 73 75
35 38 40 47 56 55 55 62 60 48 42 40 44 44 54 42 50 43 44 41 40 38 36 38 42 39 35 30 32 32 32 29 35 34 25 38 72 75 75 75 75 76 76
36 38 43 46 48 56 57 55 46 48 43 39 41 52 52 50 56 56 44 42 41 45 47 42 42 38 31 27 32 30 29 34 31 37 32 29 38 78 75 76 76 81 79
36 42 44 37 42 49 50 51 44 42 40 40 40 40 51 53 55 55 42 40 46 43 38 37 37 34 30 27 29 27 29 30 35 36 34 34 32 31 67 77 78 82 80
40 45 47 47 45 48 57 48 48 51 43 40 39 39 54 50 50 49 41 43 49 40 38 37 37 42 35 30 26 27 28 28 32 26 34 38 35 36 35 74 75 79 79
39 45 48 47 52 57 52 56 46 42 42 40 39 40 54 45 51 52 43 50 47 40 38 41 56 44 45 38 26 26 30 30 32 32 31 30 33 39 34 42 42 42 81
40 46 51 53 60 56 52 48 46 42 42 42 41 52 57 50 53 59 42 47 49 48 56 53 45 48 38 42 39 31 32 33 32 32 31 30 33 35 35 35 42 36 41
41 46 54 56 61 61 51 52 45 44 39 39 42 52 52 53 57 53 56 46 54 43 56 57 60 44 40 42 41 36 33 29 31 27 30 32 34 31 32 36 46 47 49
39 46 51 60 61 62 57 55 57 53 53 50 47 47 50 53 53 58 58 55 58 55 40 56 52 59 40 41 54 43 37 35 34 31 35 30 39 32 33 35 39 42 50
37 41 48 59 62 61 63 57 63 48 46 41 43 42 44 53 52 50 56 59 63 49 60 52 48 57 59 43 40 37 52 50 38 34 29 33 34 32 39 34 32 37 45
35 38 44 59 65 60 65 63 56 60 43 42 42 53 68 57 55 50 58 61 62 53 59 62 62 65 47 47 42 41 49 40 47 43 40 33 32 27 28 31 35 34 40
34 37 42 57 68 66 65 66 66 60 58 48 51 47 44 42 45 56 54 61 61 57 60 55 64 65 63 56 47 48 41 42 40 41 40 39 33 31 29 29 32 35 36

GFSSE_sfc_rhum_147.txt.gz
RH
54 51 74 70 71 74 73 74 75 76 76 72 77 77 76 75 76 75 75 72 72 72 74 73 74 72 72 72 74 74 74 75 76 75 75 75 74 74 71 65 71 51 75
46 49 74 72 72 74 72 74 72 71 70 71 70 72 72 73 75 75 74 73 74 73 73 72 74 74 73 75 74 74 74 74 73 74 74 73 74 74 75 72 73 65 75
45 51 67 75 72 73 71 71 70 69 69 69 70 71 73 74 74 72 72 72 75 74 72 73 72 72 72 73 73 73 73 71 70 70 70 40 54 73 74 74 75 75 73
48 53 51 77 76 72 71 70 70 70 69 71 75 76 76 74 74 73 73 74 74 73 73 72 71 70 71 72 74 77 74 69 67 67 63 32 42 74 74 74 74 75 74
52 60 56 74 72 71 71 70 70 72 75 76 75 77 75 74 75 75 74 72 74 73 73 71 72 71 70 72 71 66 64 65 63 49 31 37 37 63 71 71 73 72 73
55 59 67 73 70 70 70 69 70 71 70 72 77 75 74 75 76 75 73 74 73 73 72 71 71 71 70 70 68 68 63 66 69 32 37 49 48 67 68 71 70 68 68
45 48 68 72 73 72 73 73 72 74 71 68 71 70 70 72 73 75 73 72 72 71 71 70 73 72 71 71 69 69 67 67 36 36 34 42 57 70 66 71 72 70 71
51 49 70 75 73 70 68 67 72 77 78 70 72 78 75 77 78 75 73 72 71 70 70 70 71 70 67 67 69 70 69 69 36 37 38 42 75 73 72 68 72 74 73
35 40 52 65 68 73 69 68 72 76 76 71 77 77 78 79 76 76 73 70 69 68 70 70 69 66 63 64 68 71 70 69 38 35 32 41 75 66 65 66 68 67 64
42 43 46 47 44 55 48 67 72 75 75 70 74 71 71 69 68 72 75 72 69 69 69 66 64 62 61 62 63 68 72 71 32 36 32 52 74 70 63 62 61 62 69
50 53 53 40 44 61 63 64 79 79 74 75 73 73 76 38 44 55 66 67 67 66 65 63 62 62 63 64 65 66 65 42 24 27 34 83 75 69 61 62 65 68 75
46 42 42 50 52 70 82 83 83 80 87 91 87 78 81 38 42 40 58 65 65 65 64 64 64 66 65 38 42 62 38 30 30 28 39 78 72 64 62 63 67 68 72
50 60 49 63 70 75 91 95 97 94 93 92 89 75 42 37 36 31 42 43 42 61 40 50 48 43 34 30 26 24 26 31 25 26 54 72 68 64 66 65 67 69 70
33 40 44 54 74 91 95 67 73 84 86 76 74 65 48 36 34 38 35 38 39 36 38 37 30 37 36 34 28 28 25 24 22 24 51 71 68 66 70 70 70 72 73
30 32 48 60 73 83 84 63 62 79 73 84 53 54 44 35 39 36 39 50 40 29 31 34 32 35 35 30 27 28 25 26 26 23 35 70 70 69 71 73 74 74 74
31 33 39 56 69 57 57 51 57 42 43 39 61 36 44 43 57 38 40 36 33 42 30 37 37 38 31 25 28 28 28 25 31 31 26 46 74 74 72 73 74 76 76
28 32 38 45 43 53 61 54 58 40 31 36 40 47 49 48 50 47 36 52 35 39 41 44 39 35 30 24 30 27 27 29 29 33 30 26 46 79 77 76 77 80 78
30 37 40 33 39 43 46 47 48 46 36 33 36 39 47 50 50 57 38 56 35 39 33 32 30 30 26 24 26 25 26 26 30 30 29 31 30 28 71 81 82 84 79
31 39 40 39 39 43 50 43 44 43 37 38 36 34 49 48 48 52 34 45 48 36 35 65 32 34 31 26 23 23 24 24 29 23 28 33 32 33 34 78 82 82 75
34 39 42 39 45 49 49 48 38 39 35 33 33 34 47 42 46 49 37 58 50 34 37 52 53 39 39 32 26 24 24 24 26 27 27 26 30 33 31 36 43 42 82
35 41 45 46 56 50 47 44 40 37 37 34 32 50 48 43 47 53 40 48 45 45 54 48 45 48 34 34 35 33 26 26 26 26 25 25 28 29 30 32 40 36 48
36 41 48 50 59 55 46 47 39 38 34 33 36 49 46 44 48 48 56 41 45 39 52 51 56 47 34 36 38 32 42 84 88 31 26 27 31 27 28 33 42 44 46
37 42 49 54 59 59 53 48 49 44 43 39 60 42 46 46 47 53 53 55 53 52 37 52 50 55 42 37 50 42 38 64 60 37 34 27 34 29 28 29 34 39 46
32 39 46 55 60 58 60 56 65 49 46 40 46 51 59 51 49 46 52 53 59 50 56 49 46 53 56 45 35 32 50 50 41 37 29 60 30 26 32 27 36 37 42
28 34 41 57 64 62 65 66 53 60 40 59 45 76 58 63 49 44 49 53 56 51 58 61 55 64 47 45 37 36 43 39 44 44 37 44 28 32 23 26 28 43 38
27 31 38 59 68 64 63 64 66 63 60 71 69 71 45 40 44 53 47 54 58 56 56 55 60 62 62 57 47 46 38 40 57 64 56 36 30 28 26 26 27 29 42